Volver al catálogo

ONEWEB-0218

ActivoComunicacionesPO
NORAD 48214·PAYLOAD·🇬🇧 United Kingdom

Lanzado Apr 25, 2021 desde Vostochny Cosmodrome

Loading…

Próximos Pases (próximas 24 horas)

TLE

ActualizadoSource: CelesTrak SupGP

Época: Sep 14, 2026, 13:25 UTC

1 48214C 21031E   26257.55956433 -.00000848  00000+0 -22891-2 0  2570
2 48214  87.8902 271.8789 0001520  69.7683  30.2070 13.14504126    14

Sigue ONEWEB-0218 en tiempo real con AllMySat

Download on the App Store